Location: Columbia
(38.9520°N, 92.3340°W)
Time: 01:03:10
(UTC-05:00)

Iridium 15 - Visible Passes

Search period start: 24 May 2016 00:00
Search period end: 03 June 2016 00:00
Orbit: 776 x 779 km, 86.4° (Epoch: 23 May)

Date Brightness Start Highest point End Pass type
(mag) Time Alt. Az. Time Alt. Az. Time Alt. Az.
24 May 6.7 21:42:03 10° SSW 21:47:08 54° W 21:52:15 10° N visible
25 May 6.0 21:08:24 10° S 21:13:36 80° E 21:18:49 10° N visible
25 May 9.0 22:53:47 10° W 22:54:56 11° WNW 22:56:06 10° WNW visible
26 May 8.4 22:17:14 10° SW 22:21:03 20° WNW 22:24:53 10° NNW visible
27 May 7.5 21:42:30 10° SSW 21:47:18 37° W 21:52:07 10° NNW visible
28 May 6.4 21:08:29 10° S 21:13:40 70° W 21:18:53 10° N visible
29 May 8.8 22:18:39 10° WSW 22:21:21 14° WNW 22:24:02 10° NW visible
30 May 8.2 21:43:12 10° SW 21:47:30 26° W 21:51:49 10° NNW visible
31 May 7.1 21:08:47 10° SSW 21:13:48 48° W 21:18:50 10° N visible
02 Jun 8.7 21:44:15 10° WSW 21:47:45 18° WNW 21:51:16 10° NNW visible
